When you browse on this site, cookies collect data to enhance your experience and personalize the content and advertising you see.
Visit our Privacy Policy to learn more. By continuing to use the site, you agree to this use of cookies and data.
  • Em Portugal
  • Lista de países
  • Para 7 dias
  • Temperatura da água
  • Mapa do tempo
  • Widgets de tempo
  • user-avatar
    Iniciar Sessão

    Previsão horária em Sozopol

    Hoje, 19 Fevereiro, Quarta-feira

    Tempo Temperatura Precipitação Vento Pressão Humidade
    00:00 +9°C° 0 mm 1 m/s 761 mmHg 70%
    01:00 +8°C° 0 mm 2 m/s 761 mmHg 72%
    02:00 +8°C° 0 mm 2 m/s 761 mmHg 74%
    03:00 +8°C° 0 mm 2 m/s 761 mmHg 77%
    04:00 +8°C° 0 mm 2 m/s 761 mmHg 81%
    05:00 +8°C° 0 mm 3 m/s 761 mmHg 84%
    06:00 +8°C° 0 mm 3 m/s 761 mmHg 85%
    07:00 +8°C° 0 mm 3 m/s 761 mmHg 85%
    08:00 +8°C° 0 mm 3 m/s 761 mmHg 86%
    09:00 +9°C° 0 mm 3 m/s 761 mmHg 79%
    10:00 +9°C° 0 mm 3 m/s 761 mmHg 73%
    11:00 +10°C° 0 mm 3 m/s 761 mmHg 67%
    12:00 +10°C° 0 mm 3 m/s 760 mmHg 66%
    13:00 +10°C° 0 mm 3 m/s 760 mmHg 66%
    14:00 +10°C° 0 mm 3 m/s 760 mmHg 66%
    15:00 +10°C° 0 mm 3 m/s 760 mmHg 68%
    16:00 +9°C° 0 mm 3 m/s 759 mmHg 71%
    17:00 +9°C° 0 mm 2 m/s 759 mmHg 73%
    18:00 +8°C° 0 mm 2 m/s 759 mmHg 78%
    19:00 +7°C° 0 mm 2 m/s 759 mmHg 82%
    20:00 +7°C° 0 mm 1 m/s 759 mmHg 87%
    21:00 +7°C° 0 mm 1 m/s 759 mmHg 88%
    22:00 +7°C° 0 mm 1 m/s 759 mmHg 90%
    23:00 +7°C° 0 mm 1 m/s 759 mmHg 91%

    Amanhã, 20 Fevereiro, Quinta-feira

    Tempo Temperatura Precipitação Vento Pressão Humidade
    00:00 +7°C° 0 mm 1 m/s 759 mmHg 91%
    01:00 +6°C° 0 mm 1 m/s 758 mmHg 92%
    02:00 +6°C° 0 mm 1 m/s 758 mmHg 92%
    03:00 +6°C° 0 mm 1 m/s 758 mmHg 92%
    04:00 +6°C° 0 mm 1 m/s 758 mmHg 92%
    05:00 +6°C° 0 mm 1 m/s 758 mmHg 93%
    06:00 +7°C° 0 mm 1 m/s 758 mmHg 93%
    07:00 +7°C° 0 mm 1 m/s 758 mmHg 93%
    08:00 +7°C° 0 mm 1 m/s 758 mmHg 93%
    09:00 +7°C° 0 mm 2 m/s 758 mmHg 89%
    10:00 +7°C° 0 mm 2 m/s 758 mmHg 85%
    11:00 +8°C° 0 mm 2 m/s 758 mmHg 81%
    12:00 +8°C° 0 mm 3 m/s 758 mmHg 79%
    13:00 +8°C° 0 mm 3 m/s 758 mmHg 77%
    14:00 +8°C° 0 mm 3 m/s 758 mmHg 74%
    15:00 +8°C° 0 mm 3 m/s 757 mmHg 76%
    16:00 +8°C° 0 mm 3 m/s 757 mmHg 77%
    17:00 +7°C° 0 mm 4 m/s 757 mmHg 78%
    18:00 +7°C° 0 mm 3 m/s 758 mmHg 82%
    19:00 +7°C° 0 mm 3 m/s 758 mmHg 86%
    20:00 +5°C° 0 mm 3 m/s 758 mmHg 90%
    21:00 +5°C° 0 mm 3 m/s 759 mmHg 90%
    22:00 +5°C° 0 mm 3 m/s 759 mmHg 91%
    23:00 +5°C° 0 mm 3 m/s 759 mmHg 92%

    Depois de amanhã, 21 Fevereiro, Sexta-feira

    Tempo Temperatura Precipitação Vento Pressão Humidade
    00:00 +5°C° 0 mm 4 m/s 759 mmHg 93%
    01:00 +5°C° 0 mm 5 m/s 759 mmHg 93%
    02:00 +5°C° 0 mm 5 m/s 759 mmHg 93%
    03:00 +4°C° 0.1 mm 6 m/s 759 mmHg 91%
    04:00 +4°C° 0.1 mm 6 m/s 760 mmHg 89%
    05:00 +4°C° 0.1 mm 7 m/s 760 mmHg 86%
    06:00 +4°C° 0 mm 7 m/s 760 mmHg 86%
    07:00 +3°C° 0 mm 7 m/s 761 mmHg 85%
    08:00 +3°C° 0 mm 7 m/s 761 mmHg 84%
    15:00 +6°C° 0 mm 4 m/s 762 mmHg 67%
    16:00 +6°C° 0 mm 4 m/s 762 mmHg 69%
    17:00 +7°C° 0 mm 3 m/s 762 mmHg 70%
    18:00 +6°C° 0 mm 2 m/s 763 mmHg 75%
    19:00 +5°C° 0 mm 2 m/s 763 mmHg 79%
    20:00 +5°C° 0 mm 1 m/s 764 mmHg 84%
    21:00 +5°C° 0 mm 1 m/s 764 mmHg 84%
    22:00 +5°C° 0 mm 1 m/s 764 mmHg 84%
    23:00 +5°C° 0 mm 1 m/s 764 mmHg 84%

    22 Fevereiro, Sábado

    Tempo Temperatura Precipitação Vento Pressão Humidade
    00:00 +5°C° 0 mm 1 m/s 764 mmHg 83%
    01:00 +4°C° 0 mm 2 m/s 764 mmHg 83%
    02:00 +4°C° 0 mm 2 m/s 764 mmHg 82%
    03:00 +3°C° 0 mm 3 m/s 763 mmHg 81%
    04:00 +3°C° 0 mm 4 m/s 763 mmHg 80%
    05:00 +1°C° 0 mm 4 m/s 763 mmHg 80%
    06:00 +1°C° 0 mm 4 m/s 763 mmHg 79%
    07:00 +1°C° 0 mm 4 m/s 763 mmHg 78%
    08:00 +1°C° 0 mm 4 m/s 764 mmHg 77%
    09:00 +3°C° 0 mm 4 m/s 764 mmHg 76%
    10:00 +4°C° 0 mm 4 m/s 764 mmHg 76%
    11:00 +5°C° 0 mm 3 m/s 765 mmHg 75%
    12:00 +5°C° 0 mm 4 m/s 765 mmHg 74%
    13:00 +6°C° 0 mm 5 m/s 765 mmHg 73%
    14:00 +7°C° 0 mm 5 m/s 766 mmHg 72%
    15:00 +6°C° 0.1 mm 5 m/s 766 mmHg 72%
    16:00 +5°C° 0.1 mm 6 m/s 766 mmHg 73%
    17:00 +4°C° 0.1 mm 6 m/s 766 mmHg 74%
    18:00 +5°C° 0 mm 5 m/s 767 mmHg 76%
    19:00 +3°C° 0 mm 5 m/s 768 mmHg 78%
    20:00 +4°C° 0 mm 4 m/s 768 mmHg 81%
    21:00 +4°C° 0 mm 4 m/s 768 mmHg 82%
    22:00 +3°C° 0 mm 4 m/s 768 mmHg 84%
    23:00 +3°C° 0 mm 4 m/s 769 mmHg 85%

    23 Fevereiro, Domingo

    Tempo Temperatura Precipitação Vento Pressão Humidade
    00:00 +3°C° 0 mm 4 m/s 768 mmHg 86%
    01:00 +1°C° 0 mm 4 m/s 768 mmHg 87%
    02:00 +2°C° 0 mm 3 m/s 768 mmHg 87%
    03:00 +1°C° 0 mm 3 m/s 768 mmHg 87%
    04:00 +1°C° 0 mm 3 m/s 768 mmHg 87%
    05:00 +1°C° 0 mm 3 m/s 768 mmHg 86%
    06:00 +2°C° 0 mm 2 m/s 768 mmHg 84%
    07:00 +3°C° 0 mm 2 m/s 768 mmHg 81%
    08:00 +3°C° 0 mm 2 m/s 768 mmHg 79%
    09:00 +5°C° 0 mm 2 m/s 767 mmHg 70%
    10:00 +7°C° 0 mm 2 m/s 767 mmHg 62%
    11:00 +8°C° 0 mm 3 m/s 767 mmHg 54%
    12:00 +9°C° 0 mm 2 m/s 767 mmHg 51%
    13:00 +10°C° 0 mm 2 m/s 766 mmHg 48%
    14:00 +12°C° 0 mm 2 m/s 766 mmHg 44%
    15:00 +10°C° 0 mm 3 m/s 765 mmHg 48%
    16:00 +10°C° 0 mm 3 m/s 765 mmHg 52%
    17:00 +9°C° 0 mm 3 m/s 764 mmHg 55%
    18:00 +9°C° 0 mm 3 m/s 764 mmHg 58%
    19:00 +8°C° 0 mm 3 m/s 764 mmHg 61%
    20:00 +7°C° 0 mm 3 m/s 764 mmHg 63%
    21:00 +7°C° 0 mm 3 m/s 764 mmHg 63%
    22:00 +5°C° 0 mm 3 m/s 764 mmHg 63%
    23:00 +5°C° 0 mm 3 m/s 763 mmHg 63%

    24 Fevereiro, Segunda-feira

    Tempo Temperatura Precipitação Vento Pressão Humidade
    00:00 +5°C° 0 mm 3 m/s 763 mmHg 63%
    01:00 +5°C° 0 mm 3 m/s 762 mmHg 63%
    02:00 +5°C° 0 mm 4 m/s 762 mmHg 63%
    03:00 +5°C° 0 mm 4 m/s 761 mmHg 63%
    04:00 +5°C° 0 mm 4 m/s 760 mmHg 63%
    05:00 +5°C° 0 mm 4 m/s 760 mmHg 63%
    06:00 +5°C° 0 mm 4 m/s 759 mmHg 63%
    07:00 +5°C° 0 mm 4 m/s 758 mmHg 64%
    08:00 +6°C° 0 mm 4 m/s 758 mmHg 64%
    09:00 +8°C° 0 mm 5 m/s 757 mmHg 59%
    10:00 +10°C° 0 mm 5 m/s 757 mmHg 55%
    11:00 +13°C° 0 mm 6 m/s 757 mmHg 50%
    12:00 +14°C° 0 mm 7 m/s 756 mmHg 48%
    13:00 +15°C° 0 mm 8 m/s 756 mmHg 45%
    14:00 +17°C° 0 mm 9 m/s 755 mmHg 42%
    15:00 +14°C° 0 mm 10 m/s 756 mmHg 43%
    16:00 +13°C° 0 mm 10 m/s 756 mmHg 44%
    17:00 +12°C° 0 mm 11 m/s 757 mmHg 45%
    18:00 +10°C° 0 mm 9 m/s 758 mmHg 52%
    19:00 +8°C° 0 mm 7 m/s 759 mmHg 59%
    20:00 +6°C° 0 mm 5 m/s 760 mmHg 66%
    21:00 +6°C° 0 mm 5 m/s 761 mmHg 62%
    22:00 +6°C° 0 mm 4 m/s 762 mmHg 58%
    23:00 +5°C° 0 mm 4 m/s 762 mmHg 53%
    Mostrar mais